APG212 RPVE-RPLL

Flight info

Callsign APG212
Flight time 0h 38m
Altitude 24000
Route MINOR8A MINOR B473 LAIYA LAIYA5R
Aircraft A320/M-SDE3FGHIRWY/LB1

Departure

Time 2026-05-07 17:24
Airport Godofredo P. Ramos Airport (RPVE)

Arrival

Time 2026-05-07 18:02
Airport Ninoy Aquino International Airport (RPLL)
Time Latitude Longitude Altitude Speed Heading
2026-05-07 17:11 11.92710 121.96436 31 ft 1 kts 153°
2026-05-07 17:13 11.92712 121.96435 28 ft 2 kts 153°
2026-05-07 17:13 11.92736 121.96428 29 ft 4 kts 190°
2026-05-07 17:14 11.92757 121.96439 28 ft 3 kts 239°
2026-05-07 17:14 11.92761 121.96447 27 ft 0 kts 243°
2026-05-07 17:15 11.92710 121.96436 30 ft 0 kts 153°
2026-05-07 17:18 11.92716 121.96433 27 ft 4 kts 156°
2026-05-07 17:18 11.92740 121.96428 27 ft 4 kts 199°
2026-05-07 17:18 11.92759 121.96442 27 ft 2 kts 242°
2026-05-07 17:18 11.92761 121.96447 26 ft 0 kts 243°
2026-05-07 17:20 11.92747 121.96419 27 ft 9 kts 243°
2026-05-07 17:21 11.92707 121.96339 26 ft 14 kts 242°
2026-05-07 17:21 11.92658 121.96244 26 ft 11 kts 242°
2026-05-07 17:21 11.92677 121.96185 26 ft 10 kts 330°
2026-05-07 17:21 11.92748 121.96148 27 ft 14 kts 333°
2026-05-07 17:22 11.92790 121.96064 27 ft 17 kts 249°
2026-05-07 17:22 11.92712 121.95909 26 ft 34 kts 243°
2026-05-07 17:22 11.92591 121.95669 28 ft 40 kts 243°
2026-05-07 17:22 11.92467 121.95423 25 ft 36 kts 243°
2026-05-07 17:23 11.92352 121.95192 25 ft 29 kts 243°
2026-05-07 17:23 11.92260 121.95052 27 ft 15 kts 229°
2026-05-07 17:23 11.92263 121.95026 27 ft 4 kts 354°
2026-05-07 17:23 11.92300 121.95087 29 ft 17 kts 61°
2026-05-07 17:24 11.92418 121.95321 25 ft 75 kts 63°
2026-05-07 17:24 11.92791 121.96075 69 ft 155 kts 63°
2026-05-07 17:24 11.93304 121.97070 947 ft 158 kts 65°
2026-05-07 17:24 11.93797 121.98049 1985 ft 145 kts 65°
2026-05-07 17:25 11.94242 121.98922 2652 ft 143 kts 65°
2026-05-07 17:25 11.94726 121.99894 2945 ft 165 kts 66°
2026-05-07 17:25 11.95284 122.01025 3252 ft 191 kts 66°
2026-05-07 17:25 11.95946 122.02291 3725 ft 212 kts 57°
2026-05-07 17:26 11.97082 122.03342 4313 ft 236 kts 33°
2026-05-07 17:26 11.98624 122.04144 4829 ft 258 kts 31°
2026-05-07 17:26 12.00255 122.04964 5673 ft 264 kts 30°
2026-05-07 17:26 12.01923 122.05795 6556 ft 269 kts 30°
2026-05-07 17:27 12.03622 122.06642 7393 ft 274 kts 30°
2026-05-07 17:27 12.05350 122.07505 8226 ft 279 kts 30°
2026-05-07 17:27 12.07101 122.08385 9096 ft 282 kts 30°
2026-05-07 17:27 12.08875 122.09280 9922 ft 287 kts 30°
2026-05-07 17:28 12.10681 122.10193 10401 ft 304 kts 29°
2026-05-07 17:28 12.12642 122.11188 10739 ft 324 kts 29°
2026-05-07 17:28 12.14686 122.12224 11385 ft 331 kts 29°
2026-05-07 17:28 12.16765 122.13274 12126 ft 335 kts 28°
2026-05-07 17:29 12.18864 122.14334 12871 ft 339 kts 28°
2026-05-07 17:29 12.20987 122.15409 13617 ft 342 kts 28°
2026-05-07 17:29 12.23134 122.16500 14264 ft 346 kts 28°
2026-05-07 17:29 12.25304 122.17599 14900 ft 350 kts 28°
2026-05-07 17:30 12.27495 122.18706 15525 ft 354 kts 28°
2026-05-07 17:30 12.29712 122.19830 16142 ft 357 kts 28°
2026-05-07 17:30 12.31952 122.20957 16757 ft 361 kts 26°
2026-05-07 17:30 12.34364 122.21745 17351 ft 369 kts 12°
2026-05-07 17:31 12.36944 122.21863 17945 ft 377 kts 356°
2026-05-07 17:31 12.39520 122.21257 18471 ft 385 kts 341°
2026-05-07 17:31 12.41893 122.19955 18981 ft 391 kts 328°
2026-05-07 17:31 12.44152 122.18381 19522 ft 394 kts 327°
2026-05-07 17:32 12.46426 122.16800 20069 ft 397 kts 327°
2026-05-07 17:32 12.48719 122.15205 20606 ft 400 kts 327°
2026-05-07 17:32 12.51024 122.13606 21135 ft 402 kts 327°
2026-05-07 17:32 12.53352 122.11988 21675 ft 406 kts 327°
2026-05-07 17:33 12.55697 122.10359 22205 ft 409 kts 327°
2026-05-07 17:33 12.58059 122.08718 22734 ft 412 kts 327°
2026-05-07 17:33 12.60440 122.07065 23285 ft 415 kts 327°
2026-05-07 17:33 12.62839 122.05397 23697 ft 418 kts 327°
2026-05-07 17:34 12.65251 122.03718 23825 ft 420 kts 327°
2026-05-07 17:34 12.67629 122.02063 23865 ft 405 kts 327°
2026-05-07 17:34 12.69944 122.00458 23870 ft 405 kts 327°
2026-05-07 17:34 12.72262 121.98854 23865 ft 398 kts 328°
2026-05-07 17:35 12.74535 121.97268 23867 ft 395 kts 327°
2026-05-07 17:35 12.76802 121.95682 23869 ft 394 kts 327°
2026-05-07 17:35 12.79117 121.94064 23874 ft 412 kts 327°
2026-05-07 17:35 12.81538 121.92376 23873 ft 429 kts 327°
2026-05-07 17:36 12.84045 121.90628 23872 ft 443 kts 327°
2026-05-07 17:36 12.86627 121.88831 23872 ft 453 kts 327°
2026-05-07 17:36 12.89261 121.86996 23871 ft 464 kts 327°
2026-05-07 17:36 12.91960 121.85112 23871 ft 474 kts 327°
2026-05-07 17:37 12.94709 121.83191 23873 ft 482 kts 327°
2026-05-07 17:37 12.97501 121.81240 23871 ft 489 kts 327°
2026-05-07 17:37 13.00331 121.79263 23715 ft 497 kts 326°
2026-05-07 17:37 13.03208 121.77254 23419 ft 501 kts 327°
2026-05-07 17:38 13.06045 121.75275 23007 ft 478 kts 327°
2026-05-07 17:38 13.08702 121.73418 22638 ft 446 kts 327°
2026-05-07 17:38 13.11147 121.71707 22457 ft 417 kts 327°
2026-05-07 17:38 13.13462 121.70086 22327 ft 390 kts 327°
2026-05-07 17:39 13.15645 121.68555 21924 ft 373 kts 327°
2026-05-07 17:39 13.17770 121.67070 21415 ft 368 kts 327°
2026-05-07 17:39 13.19905 121.65581 21047 ft 364 kts 327°
2026-05-07 17:39 13.21963 121.64143 20665 ft 362 kts 327°
2026-05-07 17:40 13.24035 121.62693 20361 ft 360 kts 327°
2026-05-07 17:40 13.26105 121.61246 20079 ft 359 kts 327°
2026-05-07 17:40 13.28161 121.59810 19700 ft 357 kts 327°
2026-05-07 17:40 13.30205 121.58379 19319 ft 355 kts 327°
2026-05-07 17:41 13.32237 121.56956 18950 ft 353 kts 327°
2026-05-07 17:41 13.34261 121.55539 18587 ft 351 kts 327°
2026-05-07 17:41 13.36273 121.54132 18230 ft 349 kts 327°
2026-05-07 17:41 13.38278 121.52727 17838 ft 348 kts 327°
2026-05-07 17:42 13.40268 121.51332 17455 ft 345 kts 327°
2026-05-07 17:42 13.42247 121.49947 17085 ft 343 kts 327°
2026-05-07 17:42 13.44215 121.48568 16710 ft 341 kts 327°
2026-05-07 17:42 13.46167 121.47197 16348 ft 339 kts 327°
2026-05-07 17:43 13.48112 121.45832 15993 ft 338 kts 327°
2026-05-07 17:43 13.50044 121.44475 15659 ft 335 kts 327°
2026-05-07 17:43 13.51964 121.43127 15321 ft 334 kts 327°
2026-05-07 17:43 13.53876 121.41785 14974 ft 332 kts 327°
2026-05-07 17:44 13.55771 121.40455 14728 ft 328 kts 327°
2026-05-07 17:44 13.57643 121.39138 14432 ft 325 kts 327°
2026-05-07 17:44 13.59485 121.37802 14123 ft 324 kts 326°
2026-05-07 17:44 13.61307 121.36448 13821 ft 322 kts 325°
2026-05-07 17:45 13.63108 121.35095 13495 ft 320 kts 325°
2026-05-07 17:45 13.64902 121.33744 13139 ft 319 kts 325°
2026-05-07 17:45 13.66687 121.32402 12791 ft 317 kts 326°
2026-05-07 17:45 13.68444 121.31084 12446 ft 316 kts 326°
2026-05-07 17:46 13.70242 121.29740 12094 ft 315 kts 326°
2026-05-07 17:46 13.71987 121.28438 11753 ft 313 kts 326°
2026-05-07 17:46 13.73746 121.27127 11397 ft 312 kts 326°
2026-05-07 17:46 13.75499 121.25821 11029 ft 310 kts 326°
2026-05-07 17:47 13.77244 121.24519 10663 ft 309 kts 326°
2026-05-07 17:47 13.78976 121.23225 10322 ft 307 kts 326°
2026-05-07 17:47 13.80695 121.21941 10037 ft 304 kts 326°
2026-05-07 17:47 13.82412 121.20661 9988 ft 305 kts 326°
2026-05-07 17:48 13.84131 121.19379 9997 ft 306 kts 326°
2026-05-07 17:48 13.85856 121.18089 9994 ft 306 kts 326°
2026-05-07 17:48 13.87581 121.16799 9994 ft 306 kts 326°
2026-05-07 17:48 13.89307 121.15512 9994 ft 306 kts 326°
2026-05-07 17:49 13.91030 121.14228 9991 ft 306 kts 326°
2026-05-07 17:49 13.92753 121.12942 9869 ft 304 kts 326°
2026-05-07 17:49 13.94459 121.11665 9472 ft 303 kts 326°
2026-05-07 17:49 13.96157 121.10395 9205 ft 301 kts 326°
2026-05-07 17:50 13.97853 121.09125 9193 ft 302 kts 326°
2026-05-07 17:50 13.99554 121.07850 9192 ft 302 kts 326°
2026-05-07 17:50 14.01258 121.06577 9193 ft 303 kts 326°
2026-05-07 17:50 14.02965 121.05302 9194 ft 303 kts 326°
2026-05-07 17:51 14.04672 121.04025 9194 ft 303 kts 326°
2026-05-07 17:51 14.06378 121.02750 9194 ft 303 kts 326°
2026-05-07 17:51 14.08084 121.01474 9195 ft 303 kts 326°
2026-05-07 17:51 14.09791 121.00199 9195 ft 303 kts 326°
2026-05-07 17:52 14.11497 120.98924 9193 ft 303 kts 326°
2026-05-07 17:52 14.13205 120.97647 9189 ft 303 kts 326°
2026-05-07 17:52 14.14869 120.96399 9186 ft 288 kts 326°
2026-05-07 17:52 14.16465 120.95200 9184 ft 283 kts 326°
2026-05-07 17:53 14.18108 120.94100 9191 ft 281 kts 333°
2026-05-07 17:53 14.19807 120.93102 9187 ft 281 kts 333°
2026-05-07 17:53 14.21497 120.92105 8966 ft 279 kts 333°
2026-05-07 17:53 14.23168 120.91116 8513 ft 275 kts 333°
2026-05-07 17:54 14.24772 120.90165 8023 ft 269 kts 333°
2026-05-07 17:54 14.26352 120.89225 7912 ft 248 kts 333°
2026-05-07 17:54 14.27793 120.88369 7731 ft 233 kts 334°
2026-05-07 17:54 14.29159 120.87567 7555 ft 218 kts 334°
2026-05-07 17:55 14.30452 120.86812 7199 ft 211 kts 334°
2026-05-07 17:55 14.31722 120.86072 6786 ft 209 kts 334°
2026-05-07 17:55 14.32983 120.85337 6366 ft 208 kts 334°
2026-05-07 17:55 14.34241 120.84604 6008 ft 208 kts 334°
2026-05-07 17:56 14.35531 120.83854 5385 ft 215 kts 335°
2026-05-07 17:56 14.36848 120.83087 4786 ft 219 kts 335°
2026-05-07 17:56 14.38255 120.82564 4177 ft 212 kts
2026-05-07 17:56 14.39639 120.82822 3723 ft 195 kts 31°
2026-05-07 17:57 14.40635 120.83638 3454 ft 174 kts 55°
2026-05-07 17:57 14.41057 120.84324 3322 ft 161 kts 62°
2026-05-07 17:57 14.41747 120.85559 3084 ft 140 kts 63°
2026-05-07 17:57 14.42220 120.86410 2904 ft 135 kts 63°
2026-05-07 17:58 14.42686 120.87249 2731 ft 134 kts 63°
2026-05-07 17:58 14.43147 120.88078 2560 ft 133 kts 62°
2026-05-07 17:58 14.43608 120.88906 2388 ft 134 kts 63°
2026-05-07 17:58 14.44088 120.89769 2212 ft 140 kts 60°
2026-05-07 17:59 14.44572 120.90639 2025 ft 141 kts 60°
2026-05-07 17:59 14.45063 120.91522 1839 ft 142 kts 61°
2026-05-07 17:59 14.45556 120.92406 1663 ft 143 kts 62°
2026-05-07 17:59 14.46052 120.93299 1475 ft 143 kts 61°
2026-05-07 18:00 14.46547 120.94188 1315 ft 143 kts 60°
2026-05-07 18:00 14.47040 120.95075 1127 ft 143 kts 61°
2026-05-07 18:00 14.47535 120.95964 951 ft 142 kts 60°
2026-05-07 18:00 14.48029 120.96850 778 ft 142 kts 61°
2026-05-07 18:01 14.48362 120.97435 666 ft 143 kts 61°
2026-05-07 18:01 14.48852 120.98321 477 ft 142 kts 62°
2026-05-07 18:01 14.49347 120.99215 311 ft 141 kts 63°
2026-05-07 18:01 14.49993 121.00373 88 ft 140 kts 63°
2026-05-07 18:02 14.50632 121.01531 67 ft 73 kts 60°
2026-05-07 18:02 14.50820 121.01863 64 ft 45 kts 58°
2026-05-07 18:02 14.50969 121.02125 62 ft 41 kts 60°
2026-05-07 18:03 14.51116 121.02285 68 ft 19 kts 36°
2026-05-07 18:03 14.51185 121.02249 70 ft 18 kts 255°
2026-05-07 18:03 14.51116 121.02124 63 ft 22 kts 240°
2026-05-07 18:03 14.51043 121.01994 60 ft 11 kts 240°
2026-05-07 18:04 14.51027 121.01965 65 ft 10 kts 240°
2026-05-07 18:04 14.51005 121.01925 66 ft 0 kts 240°
2026-05-07 18:04 14.51001 121.01918 67 ft 6 kts 240°
2026-05-07 18:04 14.50941 121.01812 64 ft 26 kts 240°
2026-05-07 18:05 14.50888 121.01677 68 ft 16 kts 287°
2026-05-07 18:05 14.50889 121.01566 67 ft 19 kts 248°
2026-05-07 18:05 14.50817 121.01437 63 ft 23 kts 240°
2026-05-07 18:05 14.50741 121.01304 66 ft 9 kts 238°
2026-05-07 18:06 14.50770 121.01264 65 ft 7 kts 334°
2026-05-07 18:06 14.50797 121.01248 65 ft 0 kts 331°
2026-05-07 18:06 14.50806 121.01243 65 ft 2 kts 330°
2026-05-07 18:06 14.50809 121.01241 65 ft 0 kts 330°